[[{"header":{"parameterUnit":"m.s-1","parameterCategory":1,"la1":30.2991,"la2":30.254,"lo1":-89.0895,"lo2":-89.0444,"dy":0.0017,"dx":0.0017,"nx":28,"ny":28,"refTime":"2023-10-06T09:00:00:Z","depth":0,"parameterNumber":2,"parameterNumberName":"U-component_of_WINDS"},"data":[0,0,0,0,0,0,0,0,0,0,0,0,0,0,0,0,0,0,0,0,0,0,0,0,0,0,0,0,0,0,0,0,0,0,0,0,0,0,0,0,0,0,0,0,0,0,0,0,0,0,0,0,0,0,0,0,0,0,-1.7737,-1.7736,0,-1.7646,-1.7645,-1.7644,-1.7549,-1.7548,-1.7546,-1.7545,-1.745,-1.7449,-1.7448,0,0,0,0,0,0,0,0,0,0,0,0,0,-1.783,-1.7829,-1.7737,-1.7736,-1.7735,-1.7646,-1.7645,-1.7643,-1.7549,-1.7548,-1.7546,-1.7545,-1.7451,-1.7449,-1.7447,0,0,0,0,0,0,0,0,0,0,0,0,0,-1.7769,-1.7828,-1.7738,-1.7677,-1.7671,-1.7646,-1.7644,-1.7643,-1.755,-1.7548,-1.7546,-1.7544,-1.7451,-1.7449,-1.7447,-1.7474,0,0,-1.7441,-1.744,0,0,0,0,0,0,0,0,-1.7773,-1.7766,-1.7687,-1.7682,-1.7674,-1.7607,-1.7642,-1.7586,-1.755,-1.7596,-1.7545,-1.7543,-1.7504,-1.7497,-1.7484,-1.7469,-1.7465,-1.7441,-1.744,-1.7439,-1.7438,0,0,0,0,0,0,0,-1.7777,-1.7769,-1.7701,-1.7686,-1.7678,-1.7655,-1.7644,-1.7631,-1.7562,-1.7592,-1.7584,-1.7575,-1.75,-1.7486,-1.7481,-1.7464,-1.7441,-1.7439,-1.7438,-1.7437,-1.7465,-1.7467,0,0,0,0,0,0,-1.7791,-1.7773,-1.7704,-1.7698,-1.772,-1.7655,-1.7642,-1.763,-1.7562,-1.7549,-1.7577,-1.7571,-1.7491,-1.7484,-1.7478,-1.7504,-1.7439,-1.7437,-1.7436,-1.7463,-1.7466,-1.7468,0,0,0,0,0,0,-1.7793,-1.7785,-1.7708,-1.7734,-1.7722,-1.7655,-1.7642,-1.763,-1.7616,-1.755,-1.7537,-1.7576,-1.7489,-1.748,-1.7475,-1.7499,-1.7436,-1.7434,-1.7461,-1.7464,-1.7467,-1.7557,0,0,0,0,0,0,-1.7796,-1.7787,-1.7796,-1.7735,-1.7721,-1.7708,-1.7644,-1.7629,-1.7613,-1.7605,-1.7546,-1.7535,-1.7487,-1.7479,-1.7473,-1.7495,-1.7433,-1.7459,-1.7462,-1.7466,-1.7552,-1.7563,-1.7572,0,0,0,0,0,-1.78,-1.7825,-1.7797,-1.779,-1.7732,-1.7709,-1.7701,-1.7646,-1.7616,-1.7624,-1.7582,-1.7536,-1.7498,-1.7479,-1.7472,-1.7494,-1.7457,-1.7461,-1.7465,-1.7547,-1.7561,-1.7572,0,0,0,0,0,0,-1.7891,-1.7816,-1.7784,-1.7791,-1.7757,-1.7693,-1.7703,-1.7662,-1.7636,-1.7629,-1.7561,-1.7549,-1.7552,-1.7522,-1.7503,-1.7516,-1.7471,-1.7474,-1.7535,-1.7547,-1.7558,-1.7565,-1.7431,0,0,0,0,0,-1.7912,-1.79,-1.7835,-1.7847,-1.7832,-1.7771,-1.7759,-1.7719,-1.7681,-1.7666,-1.7623,-1.7588,-1.7568,-1.7556,-1.7533,-1.7547,-1.7533,-1.7558,-1.7569,-1.7577,-1.7581,-1.7586,-1.7596,-1.7482,-1.7482,-1.7482,0,0,-1.7956,-1.7913,-1.791,-1.7865,-1.7834,-1.7823,-1.7759,-1.775,-1.7741,-1.7665,-1.7657,-1.7625,-1.7581,-1.7585,-1.7585,-1.7561,-1.7609,-1.7583,-1.759,-1.7589,-1.7591,-1.7602,-1.7612,-1.7485,-1.7484,-1.7484,0,0,-1.8029,-1.7995,-1.8002,-1.7972,-1.7926,-1.7885,-1.7887,-1.7829,-1.7805,-1.7796,-1.7739,-1.7727,-1.7693,-1.7664,-1.7645,-1.7707,-1.7664,-1.7702,-1.7756,-1.7761,-1.777,-1.7778,-1.78,-1.7808,-1.7706,-1.7706,-1.7706,0,-1.8088,-1.8069,-1.801,-1.8005,-1.7986,-1.7917,-1.7923,-1.7897,-1.7846,-1.7835,-1.7809,-1.7765,-1.7731,-1.7727,-1.7742,-1.7729,-1.7729,-1.7708,-1.7773,-1.778,-1.7787,-1.7807,-1.7816,-1.7711,-1.771,-1.771,-1.7709,0,-1.8145,-1.8133,-1.8143,-1.8096,-1.8079,-1.808,-1.802,-1.801,-1.7972,-1.7934,-1.7926,-1.7882,-1.7849,-1.7845,-1.7808,-1.7837,-1.7823,-1.7786,-1.7739,-1.7804,-1.7821,-1.7829,-1.7718,-1.7716,-1.7714,-1.7713,0,0,-1.8273,-1.8194,-1.8198,-1.8176,-1.8121,-1.811,-1.8107,-1.8075,-1.8068,-1.8035,-1.8031,-1.8004,-1.7969,-1.7948,-1.7906,-1.7911,-1.7963,-1.7873,-1.7871,-1.7891,-1.7992,-1.802,-1.803,-1.7934,-1.7935,-1.7936,-1.7995,0,-1.8337,-1.8327,-1.8274,-1.828,-1.8268,-1.8202,-1.8199,-1.8164,-1.8129,-1.8113,-1.8072,-1.8055,-1.801,-1.7997,-1.7999,-1.7957,-1.7982,-1.7951,-1.7929,-1.7929,-1.7942,-1.8039,-1.8069,-1.8127,-1.8002,-1.8003,-1.8004,0,-1.8409,-1.8382,-1.8387,-1.8331,-1.8324,-1.8323,-1.8289,-1.8275,-1.8235,-1.8208,-1.8184,-1.8138,-1.813,-1.8087,-1.8075,-1.8056,-1.8043,-1.8021,-1.8022,-1.8018,-1.7971,-1.8038,-1.8144,-1.8153,-1.8014,-1.8014,-1.8013,0,-1.8503,-1.8467,-1.8465,-1.8448,-1.8383,-1.8384,-1.8356,-1.8314,-1.8298,-1.8269,-1.8258,-1.8229,-1.8212,-1.819,-1.8137,-1.811,-1.8132,-1.8084,-1.8109,-1.8111,-1.8117,-1.8117,-1.8223,-1.8109,-1.8109,-1.8109,-1.8109,0,-1.858,-1.8585,-1.8506,-1.8505,-1.851,-1.8448,-1.8454,-1.842,-1.8383,-1.8374,-1.8314,-1.8307,-1.8237,-1.8222,-1.818,-1.8177,-1.817,-1.8148,-1.8137,-1.8153,-1.8156,-1.8145,-1.8139,-1.8111,-1.811,-1.811,-1.811,0,-1.8685,-1.8632,-1.8626,-1.8565,-1.8549,-1.8556,-1.8503,-1.8499,-1.846,-1.8449,-1.8443,-1.8381,-1.836,-1.8304,-1.8269,-1.824,-1.8249,-1.8228,-1.8263,-1.8256,-1.8285,-1.8283,-1.8387,-1.8397,-1.8277,-1.8278,-1.8279,0,-1.8737,-1.874,-1.868,-1.867,-1.8645,-1.863,-1.8613,-1.8553,-1.8538,-1.8492,-1.8494,-1.8468,-1.8444,-1.8414,-1.8365,-1.8337,-1.8316,-1.8354,-1.8311,-1.8328,-1.8316,-1.8317,-1.8317,-1.8363,-1.8365,-1.8366,-1.8367,0,-1.8836,-1.881,-1.8789,-1.876,-1.8742,-1.8716,-1.8686,-1.8681,-1.8613,-1.86,-1.8577,-1.8559,-1.8523,-1.8498,-1.8463,-1.8434,-1.839,-1.8381,-1.8386,-1.8403,-1.8423,-1.8413,-1.8289,-1.8379,-1.8378,-1.8377,-1.8376,-1.8376,-1.8917,-1.8916,-1.8874,-1.8852,-1.8824,-1.8797,-1.8791,-1.8751,-1.8731,-1.8697,-1.8662,-1.8644,-1.8602,-1.8551,-1.8525,-1.851,-1.8486,-1.8493,-1.8495,-1.8497,-1.8505,-1.8426,-1.8503,-1.8502,-1.8502,-1.8502,-1.8501,0,-1.9013,-1.8982,-1.8963,-1.8924,-1.8907,-1.8867,-1.8832,-1.882,-1.8805,-1.877,-1.8748,-1.8723,-1.8698,-1.8648,-1.8619,-1.8616,-1.8595,-1.8611,-1.861,-1.8604,-1.8527,-1.8526,-1.8628,-1.8628,-1.8628,-1.8628,-1.8628,-1.8628,-1.9061,-1.9058,-1.9027,-1.9009,-1.8977,-1.896,-1.8943,-1.8918,-1.889,-1.8865,-1.8844,-1.8811,-1.877,-1.8737,-1.8713,-1.8699,-1.8691,-1.8713,-1.8693,-1.8622,-1.861,-1.8598,-1.8597,-1.8712,-1.8712,-1.8771,-1.8771,-1.8772]},{"header":{"parameterUnit":"m.s-1","parameterCategory":1,"la1":30.2991,"la2":30.254,"lo1":-89.0895,"lo2":-89.0444,"dy":0.0017,"dx":0.0017,"nx":28,"ny":28,"refTime":"2023-10-06T09:00:00:Z","depth":0,"parameterNumber":3,"parameterNumberName":"V-component_of_WINDS"},"data":[0,0,0,0,0,0,0,0,0,0,0,0,0,0,0,0,0,0,0,0,0,0,0,0,0,0,0,0,0,0,0,0,0,0,0,0,0,0,0,0,0,0,0,0,0,0,0,0,0,0,0,0,0,0,0,0,0,0,-0.7191,-0.7192,0,-0.727,-0.7271,-0.7272,-0.7258,-0.7257,-0.7256,-0.7254,-0.7336,-0.7339,-0.7343,0,0,0,0,0,0,0,0,0,0,0,0,0,-0.7031,-0.7034,-0.7191,-0.7192,-0.7193,-0.727,-0.7271,-0.7272,-0.7259,-0.7257,-0.7255,-0.7254,-0.7335,-0.7339,-0.7343,0,0,0,0,0,0,0,0,0,0,0,0,0,-0.7104,-0.7035,-0.7191,-0.7196,-0.7197,-0.727,-0.7271,-0.7273,-0.7259,-0.7257,-0.7255,-0.7253,-0.7333,-0.7339,-0.7344,-0.7417,0,0,-0.736,-0.7362,0,0,0,0,0,0,0,0,-0.71,-0.711,-0.7194,-0.7196,-0.7197,-0.7252,-0.7244,-0.7321,-0.7259,-0.7235,-0.7254,-0.7252,-0.731,-0.7317,-0.7336,-0.7421,-0.7425,-0.736,-0.7363,-0.7365,-0.7367,0,0,0,0,0,0,0,-0.7095,-0.7107,-0.7223,-0.7195,-0.7197,-0.7194,-0.7203,-0.7259,-0.7283,-0.7237,-0.7237,-0.7246,-0.731,-0.7331,-0.7338,-0.7426,-0.736,-0.7365,-0.7368,-0.737,-0.7578,-0.758,0,0,0,0,0,0,-0.7088,-0.7102,-0.722,-0.7225,-0.7142,-0.7199,-0.7208,-0.7237,-0.7283,-0.7288,-0.7248,-0.7245,-0.7323,-0.7332,-0.7341,-0.7433,-0.7365,-0.737,-0.7373,-0.7575,-0.7578,-0.7581,0,0,0,0,0,0,-0.7085,-0.7099,-0.7217,-0.7164,-0.7178,-0.7204,-0.7236,-0.7239,-0.726,-0.7291,-0.7295,-0.7265,-0.7322,-0.7334,-0.7399,-0.7435,-0.7373,-0.7377,-0.7572,-0.7576,-0.7579,-0.7615,0,0,0,0,0,0,-0.708,-0.7098,-0.7126,-0.7164,-0.7181,-0.7273,-0.7238,-0.7242,-0.7269,-0.7267,-0.7308,-0.7312,-0.7321,-0.7391,-0.7404,-0.7441,-0.7381,-0.7569,-0.7574,-0.7578,-0.7611,-0.7619,-0.7626,0,0,0,0,0,-0.7075,-0.7132,-0.7127,-0.7141,-0.7217,-0.7275,-0.7285,-0.7294,-0.7272,-0.7301,-0.7321,-0.7311,-0.7428,-0.7398,-0.7412,-0.7451,-0.7567,-0.7573,-0.7578,-0.7607,-0.7617,-0.7626,0,0,0,0,0,0,-0.7097,-0.7137,-0.7132,-0.7204,-0.7236,-0.7273,-0.731,-0.7304,-0.7344,-0.734,-0.735,-0.7359,-0.7426,-0.7445,-0.741,-0.7526,-0.7495,-0.7503,-0.7512,-0.7522,-0.753,-0.7525,-0.7386,0,0,0,0,0,-0.711,-0.7154,-0.7187,-0.7247,-0.7264,-0.7284,-0.731,-0.7314,-0.7348,-0.7362,-0.7386,-0.742,-0.7465,-0.7494,-0.7536,-0.7612,-0.7622,-0.7646,-0.7654,-0.7661,-0.7669,-0.7713,-0.7724,-0.7598,-0.7598,-0.7598,0,0,-0.7138,-0.7165,-0.7193,-0.7252,-0.7278,-0.7325,-0.7295,-0.7345,-0.738,-0.7369,-0.7433,-0.7452,-0.7491,-0.7562,-0.7595,-0.758,-0.7705,-0.7667,-0.7672,-0.7677,-0.7719,-0.7731,-0.7742,-0.7602,-0.7601,-0.7601,0,0,-0.7214,-0.7237,-0.7292,-0.7318,-0.7357,-0.737,-0.7383,-0.7421,-0.7434,-0.7497,-0.7491,-0.7532,-0.7609,-0.7637,-0.7662,-0.7748,-0.7742,-0.7762,-0.7804,-0.7847,-0.7857,-0.7866,-0.79,-0.7911,-0.7769,-0.7769,-0.7769,0,-0.7244,-0.7313,-0.732,-0.7371,-0.7398,-0.739,-0.7446,-0.7471,-0.7523,-0.7542,-0.7524,-0.7621,-0.7646,-0.7725,-0.7747,-0.7766,-0.7782,-0.7758,-0.7855,-0.7864,-0.7872,-0.7905,-0.7917,-0.7772,-0.7771,-0.7771,-0.7771,0,-0.7349,-0.7397,-0.7436,-0.7487,-0.7518,-0.7571,-0.7587,-0.7618,-0.7619,-0.7634,-0.77,-0.773,-0.778,-0.7798,-0.7799,-0.7878,-0.7868,-0.7852,-0.7822,-0.7887,-0.7917,-0.7929,-0.7775,-0.7774,-0.7773,-0.7773,0,0,-0.7442,-0.7496,-0.7511,-0.7534,-0.7577,-0.7615,-0.7668,-0.7716,-0.7744,-0.7779,-0.7825,-0.789,-0.7876,-0.7904,-0.7908,-0.7945,-0.8016,-0.7926,-0.7927,-0.7944,-0.8107,-0.8121,-0.8135,-0.801,-0.8013,-0.8015,-0.8105,0,-0.7524,-0.7618,-0.7626,-0.7711,-0.7757,-0.775,-0.7796,-0.7828,-0.7844,-0.7885,-0.7902,-0.7949,-0.7926,-0.7943,-0.7979,-0.7999,-0.8049,-0.7993,-0.8055,-0.8058,-0.8049,-0.815,-0.8165,-0.8248,-0.8116,-0.8118,-0.812,0,-0.7632,-0.7672,-0.7761,-0.7799,-0.7819,-0.7861,-0.7907,-0.7946,-0.7982,-0.7991,-0.8022,-0.8022,-0.8078,-0.8042,-0.812,-0.8082,-0.8108,-0.8122,-0.8125,-0.8134,-0.8095,-0.8164,-0.8275,-0.8289,-0.8138,-0.8137,-0.8135,0,-0.7694,-0.777,-0.7834,-0.7854,-0.7899,-0.7929,-0.7949,-0.7983,-0.8013,-0.8052,-0.8072,-0.8117,-0.8143,-0.8179,-0.8191,-0.8164,-0.827,-0.8235,-0.828,-0.828,-0.8305,-0.8304,-0.8424,-0.8317,-0.8317,-0.8316,-0.8316,0,-0.7786,-0.7842,-0.7863,-0.7902,-0.7965,-0.7974,-0.8036,-0.8054,-0.8085,-0.8129,-0.8125,-0.8166,-0.8178,-0.8222,-0.8232,-0.8297,-0.8307,-0.8317,-0.832,-0.8319,-0.8319,-0.8339,-0.8334,-0.832,-0.8319,-0.8318,-0.8318,0,-0.7868,-0.7883,-0.7953,-0.7991,-0.8001,-0.8046,-0.8079,-0.8117,-0.8132,-0.8188,-0.8201,-0.8224,-0.8276,-0.8291,-0.8352,-0.8359,-0.8436,-0.8431,-0.8424,-0.8425,-0.847,-0.8467,-0.861,-0.8631,-0.8507,-0.8508,-0.8509,0,-0.7927,-0.797,-0.8012,-0.8041,-0.8063,-0.811,-0.814,-0.815,-0.8181,-0.8227,-0.826,-0.8311,-0.8353,-0.8435,-0.8458,-0.8505,-0.8504,-0.8551,-0.8511,-0.851,-0.8508,-0.8507,-0.8512,-0.8559,-0.8561,-0.8562,-0.8562,0,-0.8031,-0.8037,-0.808,-0.8127,-0.8163,-0.82,-0.8236,-0.826,-0.8275,-0.8311,-0.8363,-0.8396,-0.8459,-0.851,-0.8558,-0.858,-0.8575,-0.8574,-0.8588,-0.859,-0.8585,-0.8591,-0.8447,-0.8572,-0.8571,-0.857,-0.857,-0.8569,-0.8105,-0.8144,-0.8181,-0.8229,-0.8257,-0.8291,-0.833,-0.835,-0.8394,-0.8446,-0.8449,-0.8507,-0.8543,-0.8608,-0.8631,-0.8677,-0.8664,-0.8683,-0.8688,-0.8693,-0.8699,-0.8575,-0.8686,-0.8685,-0.8685,-0.8685,-0.8685,0,-0.8212,-0.8235,-0.828,-0.833,-0.8369,-0.836,-0.8399,-0.8432,-0.8483,-0.8517,-0.8558,-0.862,-0.867,-0.8696,-0.8746,-0.8778,-0.8777,-0.8791,-0.879,-0.8796,-0.8706,-0.8691,-0.8791,-0.8791,-0.8791,-0.8791,-0.8791,-0.8791,-0.8272,-0.8338,-0.8349,-0.8429,-0.8451,-0.8508,-0.8532,-0.8563,-0.8591,-0.866,-0.8701,-0.8718,-0.875,-0.8802,-0.8847,-0.8854,-0.8874,-0.889,-0.8895,-0.8812,-0.8801,-0.8791,-0.8777,-0.8893,-0.8893,-0.8981,-0.8982,-0.8983]}]]